www.pogodaiklimat.ru

Погода и климат >> Архив погоды >> Венгрия >> Тата


ПОГОДА в Тате

  • Прогноз погоды в Тате
  • Монитор погоды в Тате

АРХИВ ПОГОДЫ в Тате

Время (UTC), дата Ветер
(напр.,м/с)
 
Видим.   Явления Облачность Т
(С)
Тd
(С)
f
(%)
Тe
(С)
Тes
(С)
Комфортность P
(гПа)
Po
(гПа)
Тmin
(С)
Tmax
(С)
R
(мм)
R24
(мм)
S
(см)
04 15.08 штиль 0 н/о н/о +8.9 +8.8 99 +8 +8 1018.1 1002.9
05 15.08 штиль 0 н/о н/о +11.6 +11.6 100 +11 +11 1018.2 1003.1
06 15.08 штиль 0 н/о н/о +14.1 +12.8 92 +14 +14 1017.9 1003.0 +8.8
07 15.08 ЮЗ 1 н/о н/о +17.3 +14.0 81 +18 +18 1017.7 1002.9
08 15.08 СЗ 1 н/о н/о +20.4 +12.1 59 +23 +23 комфорт 1017.2 1002.6
09 15.08 СЗ 2 н/о н/о +21.8 +11.8 53 +24 +24 комфорт 1016.8 1002.3
10 15.08 СЗ 2 н/о н/о +22.8 +10.9 47 +25 +25 комфорт 1016.2 1001.7
11 15.08 С 2 н/о н/о +23.7 +10.4 43 +25 +25 комфорт 1015.9 1001.5
12 15.08 СЗ 2 н/о н/о +24.0 +9.6 40 +25 +25 комфорт 1015.5 1001.1
13 15.08 ЮЗ 3 н/о н/о +25.2 +10.7 40 +26 +26 жарко 1014.9 1000.6
14 15.08 СЗ 2 н/о н/о +24.5 +8.5 36 +25 +25 комфорт 1014.8 1000.4
15 15.08 З 2 н/о н/о +24.6 +8.6 36 +25 +25 комфорт 1014.7 1000.3
16 15.08 СЗ 1 н/о н/о +24.2 +8.6 37 +25 +25 комфорт 1014.4 1000.0
17 15.08 штиль 0 н/о н/о +22.4 +10.9 48 +24 +24 комфорт 1014.6 1000.1
18 15.08 штиль 0 н/о н/о +17.4 +14.5 83 +17 +17 1014.9 1000.2 +25.9
19 15.08 штиль 0 н/о н/о +15.5 +14.5 94 +15 +15 1015.5 1000.7
20 15.08 штиль 0 н/о н/о +14.5 +13.7 95 +14 +14 1015.9 1001.0
21 15.08 штиль 0 н/о н/о +14.7 +13.7 94 +14 +14 1016.2 1001.3
22 15.08 штиль 0 н/о н/о +14.6 +14.0 96 +14 +14 1016.3 1001.4
23 15.08 штиль 0 н/о н/о +13.4 +12.8 96 +13 +13 1016.1 1001.2
00 16.08 В 1 н/о н/о +12.9 +12.6 98 +13 +13 1016.1 1001.1
01 16.08 штиль 0 н/о н/о +14.2 +13.4 95 +14 +14 1015.9 1001.0
02 16.08 ЮВ 1 н/о н/о +15.2 +13.1 87 +16 +16 1015.7 1000.9
03 16.08 Ю 1 н/о н/о +15.4 +13.2 87 +16 +16 1015.6 1000.8
04 16.08 штиль 0 н/о н/о +15.8 +13.3 85 +16 +16 1016.0 1001.2
05 16.08 штиль 0 н/о н/о +16.4 +14.9 91 +16 +16 1016.2 1001.4
06 16.08 штиль 0 н/о н/о +17.6 +14.3 81 +18 +18 1016.5 1001.8 +12.8
07 16.08 С 2 н/о н/о +19.7 +14.3 71 +22 +22 комфорт 1016.7 1002.1
08 16.08 С 4
{9}
н/о н/о +21.8 +14.7 64 +25 +25 комфорт 1016.8 1002.3
09 16.08 СЗ 4
{7}
н/о н/о +20.7 +14.4 67 +24 +24 комфорт 1017.1 1002.5
10 16.08 З 3
{7}
н/о н/о +21.5 +15.6 69 +25 +25 комфорт 1016.9 1002.4
11 16.08 С 3
{9}
н/о н/о +20.1 +16.3 79 +23 +23 комфорт 1016.9 1002.3
12 16.08 СЗ 4 н/о н/о +23.3 +15.6 62 +28 +28 душно 1016.3 1001.9
13 16.08 СЗ 3 н/о н/о +23.6 +14.6 57 +26 +26 жарко 1015.9 1001.5
14 16.08 З 3 н/о н/о +23.9 +14.3 55 +26 +26 жарко 1015.6 1001.2
15 16.08 СЗ 3
{8}
н/о н/о +23.2 +15.0 60 +27 +27 душно 1015.7 1001.3
16 16.08 З 4
{8}
н/о н/о +22.7 +12.3 52 +25 +25 комфорт 1016.0 1001.5
17 16.08 СЗ 2 н/о н/о +22.1 +14.0 60 +25 +25 комфорт 1016.2 1001.7
18 16.08 З 2
{8}
н/о н/о +19.3 +13.3 68 +21 +21 комфорт 1016.5 1001.9 +24.2
19 16.08 штиль 0 н/о н/о +16.7 +13.2 80 +17 +17 1017.3 1002.5
20 16.08 штиль 0 н/о н/о +15.3 +13.7 90 +15 +15 1017.6 1002.7
21 16.08 штиль 0 н/о н/о +14.8 +13.3 91 +14 +14 1017.6 1002.7
22 16.08 штиль 0 н/о н/о +13.9 +13.1 95 +13 +13 1017.6 1002.7
23 16.08 штиль 0 н/о н/о +12.9 +12.4 97 +12 +12 1017.6 1002.6
00 17.08 штиль 0 н/о н/о +12.2 +11.9 98 +12 +12 1017.5 1002.5
01 17.08 штиль 0 н/о н/о +11.8 +11.5 98 +11 +11 1017.6 1002.6
02 17.08 штиль 0 н/о н/о +11.4 +11.2 99 +11 +11 1017.6 1002.5
03 17.08 штиль 0 н/о н/о +10.8 +10.6 99 +10 +10 1017.8 1002.7
04 17.08 штиль 0 н/о н/о +10.5 +10.3 99 +10 +10 1017.7 1002.6
05 17.08 штиль 0 н/о н/о +13.4 +13.2 99 +13 +13 1018.0 1003.0
06 17.08 штиль 0 н/о н/о +15.9 +13.2 84 +16 +16 1017.8 1003.0 +10.4
07 17.08 штиль 0 н/о н/о +19.0 +14.5 75 +20 +20 1017.8 1003.1
08 17.08 ЮЗ 1 н/о н/о +21.7 +14.8 65 +25 +25 комфорт 1017.6 1003.1
09 17.08 З 1 н/о н/о +23.4 +14.7 58 +27 +27 душно 1017.2 1002.8
10 17.08 ЮЗ 2 н/о н/о +24.4 +14.8 55 +27 +27 жарко 1016.9 1002.5
11 17.08 З 1 н/о н/о +23.9 +14.0 54 +26 +26 жарко 1016.8 1002.4
12 17.08 З 2 н/о н/о +25.2 +14.4 51 +28 +28 жарко 1016.2 1001.9
13 17.08 ЮВ 1 н/о н/о +25.9 +14.4 49 +28 +28 жарко 1015.7 1001.4
14 17.08 Ю 3 н/о н/о +26.7 +15.1 49 +29 +29 жарко 1015.4 1001.1
15 17.08 Ю 2 н/о н/о +26.8 +14.6 47 +29 +29 жарко 1015.1 1000.8
16 17.08 Ю 2 н/о н/о +25.9 +13.1 45 +28 +28 жарко 1014.7 1000.4
17 17.08 Ю 2 н/о н/о +24.8 +14.3 52 +27 +27 жарко 1014.8 1000.5
18 17.08 ЮВ 2 н/о н/о +22.6 +13.9 58 +26 +26 жарко 1014.7 1000.3 +27.3
19 17.08 ЮВ 1 н/о н/о +21.5 +13.4 60 +24 +24 комфорт 1015.2 1000.7
20 17.08 Ю 2 н/о н/о +20.1 +13.6 66 +23 +23 комфорт 1015.3 1000.7
21 17.08 ЮВ 1 н/о н/о +19.2 +13.2 68 +22 +22 комфорт 1015.3 1000.7
22 17.08 ЮВ 1 н/о н/о +19.1 +13.5 70 +21 +21 комфорт 1015.1 1000.5
23 17.08 ЮВ 1 н/о н/о +20.1 +13.3 65 +23 +23 комфорт 1014.9 1000.3
00 18.08 ЮВ 1 н/о н/о +19.7 +13.6 68 +23 +23 комфорт 1014.9 1000.3
01 18.08 ЮВ 1 н/о н/о +19.9 +13.8 68 +23 +23 комфорт 1014.6 1000.0
02 18.08 штиль 0 н/о н/о +20.2 +13.9 67 +22 +22 комфорт 1014.6 1000.0
03 18.08 ЮВ 1 н/о н/о +20.5 +13.7 65 +24 +24 комфорт 1014.2 999.7
04 18.08 ЮВ 1 н/о н/о +20.5 +13.7 65 +24 +24 комфорт 1014.4 999.9
05 18.08 ЮВ 2 н/о н/о +20.9 +14.1 65 +24 +24 комфорт 1014.5 1000.0
06 18.08 ЮВ 2 н/о н/о +21.2 +14.4 65 +24 +24 комфорт 1014.4 999.9 +16.8
07 18.08 ЮВ 3 н/о н/о +21.6 +15.0 66 +25 +25 комфорт 1014.4 999.9
08 18.08 ЮВ 2 н/о н/о +22.8 +15.6 64 +27 +27 душно 1014.8 1000.4
09 18.08 ЮВ 2 н/о н/о +23.9 +15.9 61 +27 +27 жарко 1014.6 1000.2
10 18.08 ЮВ 4
{7}
н/о н/о +26.0 +16.3 55 +29 +29 душно 1014.4 1000.1
11 18.08 Ю 4
{8}
н/о н/о +28.3 +16.9 50 +32 +32 душно 1014.0 999.8
12 18.08 Ю 5
{8}
н/о н/о +29.6 +16.8 46 +33 +33 душно 1013.6 999.5
13 18.08 Ю 4
{8}
н/о н/о +29.8 +15.5 42 +33 +33 душно 1013.3 999.2
14 18.08 Ю 5
{9}
н/о н/о +30.8 +16.4 42 +34 +34 очень
душно
1013.0 999.0
15 18.08 Ю 3
{8}
н/о н/о +30.6 +16.2 42 +34 +34 очень
душно
1012.9 998.9
16 18.08 Ю 3
{8}
н/о н/о +30.1 +16.2 43 +33 +33 душно 1013.0 998.9
17 18.08 Ю 2 н/о н/о +28.4 +15.7 46 +31 +31 душно 1013.1 998.9
18 18.08 ЮВ 2 н/о н/о +26.3 +15.4 51 +29 +29 жарко 1013.3 999.0 +31.0
19 18.08 ЮВ 2 н/о н/о +25.3 +14.7 52 +28 +28 жарко 1013.7 999.4
20 18.08 ЮВ 1 н/о н/о +24.1 +14.8 56 +27 +27 жарко 1013.8 999.4
21 18.08 ЮВ 1 н/о н/о +22.6 +14.7 61 +26 +26 жарко 1013.8 999.4
22 18.08 штиль 0 н/о н/о +18.5 +15.6 83 +19 +19 1014.3 999.7
23 18.08 ЮВ 1 н/о н/о +19.4 +17.2 87 +23 +23 комфорт 1014.4 999.8
00 19.08 ЮВ 2 н/о н/о +22.7 +15.8 65 +27 +27 душно 1013.8 999.4
01 19.08 ЮВ 1 н/о н/о +22.0 +16.1 69 +26 +26 душно 1014.0 999.5
02 19.08 штиль 0 н/о н/о +19.5 +16.0 80 +21 +21 комфорт 1014.3 999.7
03 19.08 Ю 1 н/о н/о +20.3 +15.9 76 +24 +24 комфорт 1014.4 999.8
04 19.08 ЮВ 2 н/о н/о +22.1 +15.7 67 +26 +26 душно 1014.3 999.8
05 19.08 ЮВ 2 н/о н/о +23.3 +15.4 61 +28 +28 душно 1014.5 1000.1
06 19.08 Ю 2 н/о н/о +24.1 +15.3 58 +27 +27 жарко 1015.2 1000.8 +17.4
07 19.08 Ю 3 н/о н/о +26.4 +16.6 55 +30 +30 душно 1015.6 1001.3
08 19.08 Ю 4 н/о н/о +28.2 +17.4 52 +32 +32 душно 1015.6 1001.4
09 19.08 Ю 3 н/о н/о +29.0 +17.5 50 +33 +33 очень
душно
1015.9 1001.7
10 19.08 ЮЗ 3 н/о н/о +29.8 +18.3 50 +35 +35 очень
душно
1015.8 1001.7
11 19.08 ЮВ 2 н/о н/о +30.2 +18.3 49 +35 +35 очень
душно
1015.7 1001.6
12 19.08 ЮЗ 2 н/о н/о +31.7 +18.7 46 +37 +37 очень
душно
1015.8 1001.8
13 19.08 З 2 н/о н/о +31.5 +17.8 44 +36 +36 очень
душно
1015.9 1001.9
14 19.08 З 3 н/о н/о +31.3 +18.3 46 +36 +36 очень
душно
1015.9 1001.8
15 19.08 З 2 н/о н/о +31.3 +18.3 46 +36 +36 очень
душно
1015.7 1001.6
16 19.08 С 1 н/о н/о +30.4 +18.5 49 +35 +35 очень
душно
1015.6 1001.5
17 19.08 штиль 0 н/о н/о +28.6 +18.4 54 +33 +33 очень
душно
1015.5 1001.3
18 19.08 СЗ 1 н/о н/о +24.0 +20.1 79 +30 +30 очень
душно
1016.0 1001.6 +32.4
19 19.08 штиль 0 н/о н/о +21.2 +19.5 90 +26 +26 душно 1016.6 1002.1
20 19.08 штиль 0 н/о н/о +19.8 +18.5 92 +22 +22 комфорт 1017.2 1002.6
21 19.08 штиль 0 н/о н/о +19.3 +18.5 95 +21 +21 комфорт 1017.7 1003.0
22 19.08 штиль 0 н/о н/о +18.8 +17.8 94 +20 +20 1017.6 1002.9
23 19.08 штиль 0 н/о н/о +19.0 +18.3 96 +21 +21 комфорт 1017.4 1002.7
00 20.08 штиль 0 н/о н/о +19.2 +18.0 93 +21 +21 комфорт 1017.4 1002.7
01 20.08 штиль 0 н/о н/о +19.1 +17.6 91 +21 +21 комфорт 1017.5 1002.8
02 20.08 штиль 0 н/о н/о +17.9 +17.3 96 +18 +18 1017.7 1003.0
03 20.08 В 1 н/о н/о +18.2 +17.2 94 +20 +20 1018.4 1003.7
04 20.08 Ю 1 н/о н/о +18.0 +17.0 94 +19 +19 1018.5 1003.8
05 20.08 штиль 0 н/о н/о +20.5 +18.3 87 +24 +24 комфорт 1018.6 1004.0
06 20.08 ЮЗ 1 н/о н/о +22.0 +17.8 77 +27 +27 душно 1018.9 1004.4 +17.7
07 20.08 штиль 0 н/о н/о +24.5 +18.7 70 +29 +29 душно 1019.0 1004.6
08 20.08 З 1 н/о н/о +25.9 +19.1 66 +31 +31 очень
душно
1019.1 1004.7
09 20.08 Ю 1 н/о н/о +28.4 +19.9 60 +35 +35 очень
душно
1018.7 1004.5
10 20.08 Ю 1 н/о н/о +29.7 +20.3 57 +36 +36 очень
душно
1018.8 1004.6
11 20.08 ЮЗ 1 н/о н/о +31.0 +19.7 51 +37 +37 очень
душно
1018.4 1004.3
12 20.08 СВ 1 н/о н/о +30.8 +18.9 49 +36 +36 очень
душно
1018.1 1004.0
13 20.08 СВ 2 н/о н/о +31.5 +18.1 45 +36 +36 очень
душно
1017.7 1003.6
14 20.08 Ю 2 н/о н/о +32.7 +19.6 46 +38 +38 очень
душно
1017.5 1003.5
15 20.08 ЮВ 2 н/о н/о +32.6 +18.8 44 +38 +38 очень
душно
1017.3 1003.3
16 20.08 Ю 3 н/о н/о +32.6 +18.4 43 +37 +37 очень
душно
1016.9 1002.9
17 20.08 Ю 2 н/о н/о +30.8 +18.5 48 +36 +36 очень
душно
1016.8 1002.7
18 20.08 Ю 1 н/о н/о +26.0 +19.4 67 +31 +31 очень
душно
1017.2 1002.9 +33.1
19 20.08 В 1 н/о н/о +23.5 +19.6 79 +29 +29 душно 1017.5 1003.1
20 20.08 штиль 0 н/о н/о +21.5 +18.9 85 +26 +26 душно 1017.4 1002.9
21 20.08 штиль 0 н/о н/о +20.2 +18.7 91 +23 +23 комфорт 1017.4 1002.8
22 20.08 штиль 0 н/о н/о +19.1 +17.9 93 +21 +21 комфорт 1017.5 1002.8
23 20.08 штиль 0 н/о н/о +18.9 +18.1 95 +20 +20 1017.5 1002.8
00 21.08 Ю 1 н/о н/о +18.4 +17.4 94 +20 +20 1017.5 1002.8
01 21.08 штиль 0 н/о н/о +18.1 +17.0 93 +18 +18 1018.2 1003.5
02 21.08 штиль 0 н/о н/о +18.3 +16.5 89 +19 +19 1019.5 1004.8
03 21.08 З 2 н/о н/о +20.1 +18.2 89 +24 +24 комфорт 1020.1 1005.5
04 21.08 З 3 н/о н/о +20.7 +17.5 82 +25 +25 комфорт 1021.1 1006.5
05 21.08 СЗ 3
{7}
н/о н/о +20.4 +16.6 79 +24 +24 комфорт 1022.2 1007.5
06 21.08 З 4
{8}
н/о н/о +20.6 +16.4 77 +24 +24 комфорт 1023.1 1008.4 +17.8
07 21.08 СЗ 6
{10}
н/о н/о +21.5 +16.0 71 +25 +25 комфорт 1023.4 1008.8
08 21.08 СЗ 6
{12}
н/о н/о +21.4 +15.9 71 +25 +25 комфорт 1023.7 1009.1
09 21.08 СЗ 5
{10}
н/о н/о +22.0 +15.6 67 +26 +26 душно 1023.7 1009.1
10 21.08 СЗ 5
{12}
н/о н/о +23.3 +16.4 65 +28 +28 душно 1023.5 1009.0
11 21.08 СЗ 6
{11}
н/о н/о +23.1 +15.7 63 +27 +27 душно 1023.3 1008.8
12 21.08 СЗ 5
{10}
н/о н/о +23.9 +16.2 62 +27 +27 жарко 1023.4 1008.9
13 21.08 З 6
{10}
н/о н/о +24.2 +16.0 60 +27 +27 жарко 1023.2 1008.7
14 21.08 З 7
{12}
н/о н/о +22.3 +15.4 65 +26 +26 жарко 1023.4 1008.8
15 21.08 СЗ 5
{10}
н/о н/о +21.3 +14.5 65 +24 +24 комфорт 1023.7 1009.1
16 21.08 СЗ 5
{12}
н/о н/о +20.7 +14.1 66 +23 +23 комфорт 1024.0 1009.3
17 21.08 СЗ 4
{9}
н/о н/о +20.3 +14.0 67 +23 +23 комфорт 1023.8 1009.1
18 21.08 СЗ 4
{9}
н/о н/о +19.7 +13.6 68 +21 +21 комфорт 1023.9 1009.2 +24.5
19 21.08 З 3
{8}
н/о н/о +18.6 +13.5 72 +19 +19 1024.5 1009.7
20 21.08 З 2
{7}
н/о н/о +18.5 +13.4 72 +20 +20 1024.6 1009.8
21 21.08 СЗ 2 н/о н/о +18.2 +13.5 74 +19 +19 1024.5 1009.7
22 21.08 СЗ 2 н/о н/о +17.7 +13.4 76 +18 +18 1024.5 1009.7
23 21.08 штиль 0 н/о н/о +16.7 +14.2 85 +17 +17 1024.7 1009.8
00 22.08 штиль 0 н/о н/о +15.5 +13.3 87 +15 +15 1024.8 1009.9
01 22.08 Ю 1 н/о н/о +14.5 +13.2 92 +15 +15 1024.6 1009.6
02 22.08 ЮЗ 1 н/о н/о +14.7 +13.4 92 +15 +15 1024.5 1009.5

 

Местоположение метеостанции Тата (Венгрия): широта 47.65 долгота 18.32 высота над уровнем моря 129 м.

В архиве по умолчанию представлена погода в Тате за последнюю неделю. Архивные данные за месяц целиком и за предыдущие месяцы, начиная с января 2011 года, Вы можете получить, выбрав интересующий диапазон дат из раскрывающегося списка и нажав кнопку "Ввод!".


*Определитесь, кто Вы:
робот инопланетянин человек

Внимание! Время в таблицах - всемирное. Для получения местного времени необходимо прибавить поправку, которая равна 1 ч.

Смотрите также архив погоды в соседних городах и на ближайших метеорологических станциях:

Погода в Тате (Венгрия) (24 км)
Погода в Гурбаново (Словакия) (26 км)
Погода в Пер аэропорту (Венгрия) (38 км)
Погода в Дьере (Венгрия) (49 км)
Погода в Агарде (Венгрия) (57 км)
Погода в Будапеште (Венгрия) (69 км)
Погода на Базе ВВС Папа (Венгрия) (70 км)
Погода в Моховце (Словакия) (71 км)
Погода в Дудинце (Словакия) (71 км)
Погода в Нитре (Словакия) (71 км)

Пояснения к столбцам:

Ветер - указаны скорость ветра в м/с - средняя за 10 мин, порывы в срок и между сроками (в фигурных скобках) и направление, откуда дует ветер: С - северный, СВ - северо-восточный, В - восточный, ЮВ - юго-восточный, Ю - южный, ЮЗ - юго-западный, З - западный, СЗ - северо-западный.
Видимость - горизонтальная дальность видимости в метрах или километрах. При видимости от 1 до 10 км при отсутствии осадков обычно наблюдается дымка, при ухудшении видимости до 1 км и менее - туман. В сухую погоду видимость может ухудшаться дымом, пылью или мглою.
Явления - указаны атмосферные явления, наблюдавшиеся в срок или в последний час перед сроком; фигурными скобками обозначены явления, наблюдавшиеся между сроками (за 1-3 часа до срока); квадратными скобками обозначены град или гололедные отложения с указанием их диаметра в мм.
Облачность - указаны через наклонную черту общая и нижняя облачность в баллах и высота нижней границы облаков в метрах; квадратными скобками обозначены формы облаков: Ci - перистые, Cs - перисто-слоистые, Cc - перисто-кучевые, Ac - высококучевые, As - высокослоистые, Sc - слоисто-кучевые, Ns - слоисто-дождевые, Cu - кучевые, Cb - кучево-дождевые. Подробнее классификацию облаков см. в Атласе облаков (PDF).
T - Температура воздуха - температура, измеренная на высоте 2 м над землей.
Td - Температура точки росы - температура, при понижении до которой содержащийся в воздухе водяной пар достигнет насыщения.
f - Относительная влажность воздуха - влажноcть воздуха, измеренная на высоте 2 м над землей.
Te - Эффективная температура - температура, которую ощущает одетый по сезону человек в тени. Характеристика душности погоды. При расчете учитывается влияние влажности воздуха и скорости ветра на теплоощущения человека.
Tes - Эффективная температура на солнце - температура, которую ощущает человек, с поправкой на солнечный нагрев. Характеристика знойности погоды. Зависит от высоты солнца над горизонтом, облачности и скорости ветра. Ночью, в пасмурную погоду, а также при ветре 12 м/с и более поправка равна нулю.
P - Атмосферное давление - приведенное к уровню моря атмосферное давление.
Po - Атмосферное давление - измеренное на уровне метеостанции атмосферное давление.
Tmin - Минимальная температура - минимум температуры воздуха на высоте 2 м над землей.
Tmax - Максимальная температура - максимум температуры воздуха на высоте 2 м над землей.
R - Количество осадков - Количество выпавших осадков за период времени, мм. При наведении курсора мыши на число - период времени, за который выпало указанное количество осадков.
R24 - Количество осадков - Количество выпавших осадков за 24 часа, мм.
S - Снежный покров - Высота снежного покрова, см. При наведении курсора мыши на число - состояние снежного покрова и степень покрытия местности в баллах.